IZ3TCG-13 Weather Reports


time (UTC)temp
C
wind
direction
speed
KPH
gust
KPH
rain 1hr
cm
rain 24hr
cm
rain mn
cm
humidity
%
barometer
mb
20260904141603 31 94 6.4 17.7 0.00 0.00 0.00 62 1011.1
20260904141203 31 90 8.0 17.7 0.00 0.00 0.00 63 1011.3
20260904140803 32 88 6.4 17.7 0.00 0.00 0.00 62 1011.1
20260904140403 32 83 4.8 12.9 0.00 0.00 0.00 62 1011.3
20260904140004 31 76 3.2 14.5 0.00 0.00 0.00 60 1011.3
20260904135603 31 73 6.4 20.9 0.00 0.00 0.00 59 1011.4
20260904135203 31 74 6.4 20.9 0.00 0.00 0.00 59 1011.5
20260904135015 31 76 6.4 20.9 0.00 0.00 0.00 61 1011.5
20260904134403 31 77 8.0 17.7 0.00 0.00 0.00 60 1011.4
20260904134003 31 83 6.4 17.7 0.00 0.00 0.00 61 1011.5
20260904133603 32 86 6.4 17.7 0.00 0.00 0.00 61 1011.6
20260904133203 31 89 6.4 17.7 0.00 0.00 0.00 63 1011.7
20260904132803 31 93 6.4 17.7 0.00 0.00 0.00 62 1011.5
20260904132403 32 89 8.0 17.7 0.00 0.00 0.00 63 1011.6
20260904132003 32 85 8.0 17.7 0.00 0.00 0.00 63 1011.6
20260904131603 32 90 6.4 17.7 0.00 0.00 0.00 64 1011.7
20260904131203 32 87 6.4 12.9 0.00 0.00 0.00 62 1011.5
20260904130803 32 78 6.4 14.5 0.00 0.00 0.00 62 1011.6
20260904130403 32 82 3.2 14.5 0.00 0.00 0.00 60 1011.6
20260904130003 32 86 3.2 11.3 0.00 0.00 0.00 59 1011.9
20260904125603 32 93 4.8 11.3 0.00 0.00 0.00 60 1011.6
20260904125203 32 100 3.2 11.3 0.00 0.00 0.00 60 1011.9
20260904124804 33 91 4.8 9.7 0.00 0.00 0.00 58 1011.8
20260904124403 33 86 3.2 9.7 0.00 0.00 0.00 59 1011.9
20260904124003 34 114 3.2 6.4 0.00 0.00 0.00 53 1012.0
20260904123814 34 131 1.6 6.4 0.00 0.00 0.00 45 1012.0
20260904123203 34 155 3.2 9.7 0.00 0.00 0.00 49 1012.3
20260904123017 34 157 1.6 9.7 0.00 0.00 0.00 48 1011.9
20260904122403 35 144 3.2 6.4 0.00 0.00 0.00 49 1012.1
20260904122003 34 119 1.6 6.4 0.00 0.00 0.00 47 1011.9
20260904121603 33 118 4.8 6.4 0.00 0.00 0.00 47 1012.2
20260904121203 34 141 3.2 6.4 0.00 0.00 0.00 49 1012.1
20260904120803 34 186 1.6 6.4 0.00 0.00 0.00 46 1012.0
20260904120403 33 174 1.6 6.4 0.00 0.00 0.00 51 1012.2
20260904120003 34 158 3.2 6.4 0.00 0.00 0.00 49 1012.1
20260904115603 33 175 3.2 6.4 0.00 0.00 0.00 48 1012.1
20260904115203 33 169 1.6 9.7 0.00 0.00 0.00 50 1012.3
20260904114803 33 168 3.2 9.7 0.00 0.00 0.00 49 1012.1
20260904114615 33 156 3.2 9.7 0.00 0.00 0.00 49 1012.2
20260904114003 33 166 6.4 11.3 0.00 0.00 0.00 50 1012.2
20260904113603 33 114 1.6 11.3 0.00 0.00 0.00 53 1012.2
20260904113203 32 96 4.8 11.3 0.00 0.00 0.00 54 1012.4
20260904112803 32 93 4.8 11.3 0.00 0.00 0.00 54 1012.3
20260904112403 33 94 3.2 6.4 0.00 0.00 0.00 55 1012.4
20260904112003 33 169 1.6 6.4 0.00 0.00 0.00 56 1012.6
20260904111816 33 152 3.2 6.4 0.00 0.00 0.00 54 1012.5
20260904111415 33 214 1.6 6.4 0.00 0.00 0.00 54 1012.6
20260904110803 33 223 3.2 6.4 0.00 0.00 0.00 55 1012.9
20260904110403 33 180 1.6 9.7 0.00 0.00 0.00 52 1012.6
20260904110004 33 82 3.2 9.7 0.00 0.00 0.00 52 1012.5
20260904105603 33 80 1.6 11.3 0.00 0.00 0.00 55 1012.7
20260904105413 32 84 4.8 11.3 0.00 0.00 0.00 53 1012.5
20260904104803 32 88 3.2 6.4 0.00 0.00 0.00 56 1012.6
20260904104403 32 92 3.2 6.4 0.00 0.00 0.00 56 1012.8
20260904104003 33 183 3.2 6.4 0.00 0.00 0.00 53 1012.7
20260904103604 32 178 1.6 6.4 0.00 0.00 0.00 52 1012.8
20260904103203 33 129 3.2 6.4 0.00 0.00 0.00 55 1012.8
20260904102803 33 95 3.2 6.4 0.00 0.00 0.00 54 1012.9
20260904102403 32 88 3.2 6.4 0.00 0.00 0.00 56 1013.0
20260904102003 32 100 3.2 6.4 0.00 0.00 0.00 56 1013.1
20260904101603 32 178 1.6 6.4 0.00 0.00 0.00 56 1013.0
20260904101203 32 141 3.2 6.4 0.00 0.00 0.00 54 1012.8
20260904100803 32 133 1.6 6.4 0.00 0.00 0.00 54 1013.0
20260904100403 32 144 1.6 6.4 0.00 0.00 0.00 55 1012.9
20260904095603 31 119 3.2 6.4 0.00 0.00 0.00 56 1013.0
20260904095203 31 91 3.2 6.4 0.00 0.00 0.00 56 1013.0
20260904094803 31 75 3.2 6.4 0.00 0.00 0.00 55 1013.2
20260904094403 31 81 3.2 6.4 0.00 0.00 0.00 56 1013.2
20260904094003 31 100 1.6 9.7 0.00 0.00 0.00 57 1013.1
20260904093817 31 94 1.6 9.7 0.00 0.00 0.00 56 1013.2
20260904093203 31 86 3.2 6.4 0.00 0.00 0.00 56 1013.4
20260904092803 31 104 3.2 9.7 0.00 0.00 0.00 57 1013.3
20260904092403 31 94 3.2 9.7 0.00 0.00 0.00 57 1013.4
20260904092214 31 102 1.6 9.7 0.00 0.00 0.00 58 1013.3
20260904091603 31 108 1.6 3.2 0.00 0.00 0.00 58 1013.4
20260904091203 31 119 3.2 3.2 0.00 0.00 0.00 56 1013.4
20260904090804 31 123 3.2 3.2 0.00 0.00 0.00 59 1013.5
20260904090403 31 108 1.6 6.4 0.00 0.00 0.00 60 1013.1
20260904090003 30 123 0.0 6.4 0.00 0.00 0.00 60 1013.0
20260904085603 30 117 3.2 6.4 0.00 0.00 0.00 59 1013.3
20260904085203 30 109 3.2 6.4 0.00 0.00 0.00 60 1013.4
20260904084803 30 94 3.2 6.4 0.00 0.00 0.00 60 1013.2
20260904084614 30 87 3.2 6.4 0.00 0.00 0.00 59 1013.2
20260904084213 30 85 3.2 6.4 0.00 0.00 0.00 61 1013.3
20260904083603 30 102 3.2 6.4 0.00 0.00 0.00 57 1013.6
20260904083203 30 95 0.0 6.4 0.00 0.00 0.00 60 1013.3
20260904082803 30 67 0.0 3.2 0.00 0.00 0.00 57 1013.5
20260904082403 30 29 3.2 6.4 0.00 0.00 0.00 59 1013.4
20260904082003 28 28 0.0 6.4 0.00 0.00 0.00 60 1013.4
20260904081603 28 21 3.2 6.4 0.00 0.00 0.00 63 1013.1
20260904081203 30 11 3.2 6.4 0.00 0.00 0.00 61 1013.2
20260904080803 30 356 1.6 3.2 0.00 0.00 0.00 58 1013.2
20260904080403 29 7 0.0 3.2 0.00 0.00 0.00 60 1013.6
20260904080003 29 29 1.6 3.2 0.00 0.00 0.00 60 1013.4
20260904075603 28 30 1.6 3.2 0.00 0.00 0.00 63 1013.3
20260904075203 28 13 1.6 6.4 0.00 0.00 0.00 61 1013.1
20260904074803 27 20 1.6 6.4 0.00 0.00 0.00 62 1013.2
20260904074403 27 23 3.2 6.4 0.00 0.00 0.00 63 1013.1
20260904074003 27 16 3.2 6.4 0.00 0.00 0.00 63 1013.3
20260904073603 27 352 1.6 3.2 0.00 0.00 0.00 62 1013.3
20260904073204 27 336 1.6 3.2 0.00 0.00 0.00 63 1013.2
20260904072803 27 330 0.0 6.4 0.00 0.00 0.00 64 1013.0
20260904072403 27 317 1.6 6.4 0.00 0.00 0.00 65 1013.1
20260904072003 27 345 3.2 3.2 0.00 0.00 0.00 64 1013.1
20260904071603 26 9 0.0 3.2 0.00 0.00 0.00 66 1013.3
20260904071203 27 15 1.6 3.2 0.00 0.00 0.00 65 1013.2
20260904070803 26 10 0.0 3.2 0.00 0.00 0.00 66 1013.2
20260904070403 26 5 1.6 6.4 0.00 0.00 0.00 67 1013.3
20260904070003 26 13 1.6 6.4 0.00 0.00 0.00 67 1013.2
20260904065603 25 10 1.6 6.4 0.00 0.00 0.00 68 1012.9
20260904065203 25 13 3.2 6.4 0.00 0.00 0.00 69 1013.3
20260904064803 25 342 1.6 3.2 0.00 0.00 0.00 68 1013.2
20260904064403 25 320 1.6 3.2 0.00 0.00 0.00 69 1013.4
20260904064003 25 300 0.0 3.2 0.00 0.00 0.00 72 1013.2
20260904063603 24 311 1.6 3.2 0.00 0.00 0.00 73 1013.1
20260904063203 24 311 1.6 3.2 0.00 0.00 0.00 74 1013.0
20260904062803 23 299 0.0 6.4 0.00 0.00 0.00 74 1013.0
20260904062404 23 285 1.6 6.4 0.00 0.00 0.00 76 1012.9
20260904062004 23 268 1.6 6.4 0.00 0.00 0.00 76 1013.0
20260904061603 23 266 1.6 6.4 0.00 0.00 0.00 76 1013.0
20260904061203 23 270 0.0 3.2 0.00 0.00 0.00 77 1012.9
20260904060803 22 270 0.0 3.2 0.00 0.00 0.00 78 1013.2
20260904060403 22 267 1.6 3.2 0.00 0.00 0.00 79 1012.9
20260904060003 22 281 0.0 6.4 0.00 0.00 0.00 81 1013.1
20260904055603 22 282 1.6 6.4 0.00 0.00 0.00 81 1012.9
20260904055203 22 291 0.0 6.4 0.00 0.00 0.00 81 1013.0
20260904055016 22 292 3.2 6.4 0.00 0.00 0.00 81 1013.0
20260904054403 21 311 3.2 6.4 0.00 0.00 0.00 82 1013.0
20260904054003 21 313 0.0 3.2 0.00 0.00 0.00 84 1013.0
20260904053603 21 291 0.0 3.2 0.00 0.00 0.00 84 1012.9
20260904053203 21 289 0.0 3.2 0.00 0.00 0.00 85 1013.1
20260904052803 20 287 1.6 3.2 0.00 0.00 0.00 87 1012.9
20260904052403 20 0 0.0 0.0 0.00 0.00 0.00 87 1013.0
20260904052003 20 0 0.0 0.0 0.00 0.00 0.00 88 1013.1
20260904051603 20 270 0.0 3.2 0.00 0.00 0.00 88 1012.8
20260904051203 20 270 0.0 3.2 0.00 0.00 0.00 88 1012.9
20260904050803 20 270 0.0 3.2 0.00 0.00 0.00 89 1012.6
20260904050403 19 0 0.0 0.0 0.00 0.00 0.00 91 1012.8
20260904050214 19 0 0.0 0.0 0.00 0.00 0.00 91 1012.8
20260904045603 19 0 0.0 0.0 0.00 0.00 0.00 90 1012.7
20260904045203 19 0 0.0 0.0 0.00 0.00 0.00 90 1012.5
20260904045017 19 0 0.0 0.0 0.00 0.00 0.00 90 1012.7
20260904044403 19 0 0.0 0.0 0.00 0.00 0.00 89 1012.6
20260904044003 19 0 0.0 0.0 0.00 0.00 0.00 89 1012.6
20260904043603 19 0 0.0 0.0 0.00 0.00 0.00 89 1012.4
20260904043203 20 274 0.0 3.2 0.00 0.00 0.00 88 1012.4
20260904042803 20 279 0.0 3.2 0.00 0.00 0.00 88 1012.8
20260904042403 20 281 0.0 3.2 0.00 0.00 0.00 87 1012.5
20260904042003 20 0 0.0 0.0 0.00 0.00 0.00 87 1012.5
20260904041603 20 0 0.0 0.0 0.00 0.00 0.00 86 1012.4
20260904041203 20 0 0.0 0.0 0.00 0.00 0.00 87 1012.5
20260904040803 20 0 0.0 0.0 0.00 0.00 0.00 87 1012.5
20260904040615 20 0 0.0 0.0 0.00 0.00 0.00 87 1012.4
20260904040215 20 0 0.0 0.0 0.00 0.00 0.00 88 1012.5
20260904035603 20 0 0.0 0.0 0.00 0.00 0.00 88 1012.5
20260904035203 20 0 0.0 0.0 0.00 0.00 0.00 88 1012.5
20260904034803 20 0 0.0 0.0 0.00 0.00 0.00 87 1012.5
20260904034403 20 0 0.0 0.0 0.00 0.00 0.00 87 1012.5
20260904034003 20 0 0.0 0.0 0.00 0.00 0.00 87 1012.5
20260904033603 20 0 0.0 0.0 0.00 0.00 0.00 86 1012.5
20260904033203 20 0 0.0 0.0 0.00 0.00 0.00 86 1012.3
20260904032803 20 0 0.0 0.0 0.00 0.00 0.00 85 1012.5
20260904032403 21 0 0.0 0.0 0.00 0.00 0.00 84 1012.5
20260904032213 21 0 0.0 0.0 0.00 0.00 0.00 84 1012.6
20260904031603 21 0 0.0 0.0 0.00 0.00 0.00 83 1012.5
20260904031203 20 0 0.0 0.0 0.00 0.00 0.00 84 1012.5
20260904030803 20 0 0.0 0.0 0.00 0.00 0.00 85 1012.3
20260904030616 20 0 0.0 0.0 0.00 0.00 0.00 85 1012.5
20260904030004 21 0 0.0 0.0 0.00 0.00 0.00 83 1012.4
20260904025604 21 0 0.0 0.0 0.00 0.00 0.00 83 1012.4
20260904025203 21 0 0.0 0.0 0.00 0.00 0.00 82 1012.4
20260904025013 21 0 0.0 0.0 0.00 0.00 0.00 82 1012.4
20260904024403 21 0 0.0 0.0 0.00 0.00 0.00 82 1012.3
20260904024003 21 0 0.0 0.0 0.00 0.00 0.00 81 1012.3
20260904023603 21 0 0.0 0.0 0.00 0.00 0.00 81 1012.3
20260904023203 21 0 0.0 0.0 0.00 0.00 0.00 80 1012.4
20260904022803 21 0 0.0 0.0 0.00 0.00 0.00 80 1012.4
20260904022403 21 0 0.0 0.0 0.00 0.00 0.00 80 1012.2
20260904022003 21 0 0.0 0.0 0.00 0.00 0.00 82 1012.4
20260904021603 21 0 0.0 0.0 0.00 0.00 0.00 82 1012.5
20260904021203 21 0 0.0 0.0 0.00 0.00 0.00 80 1012.5
20260904020803 21 0 0.0 0.0 0.00 0.00 0.00 81 1012.5
20260904020403 21 0 0.0 0.0 0.00 0.00 0.00 80 1012.6
20260904020003 21 0 0.0 0.0 0.00 0.00 0.00 77 1012.6
20260904015603 22 0 0.0 0.0 0.00 0.00 0.00 77 1012.3
20260904015414 22 67 0.0 3.2 0.00 0.00 0.00 77 1012.4
20260904014803 22 78 0.0 3.2 0.00 0.00 0.00 76 1012.4
20260904014403 22 90 0.0 3.2 0.00 0.00 0.00 77 1012.5
20260904014003 22 0 0.0 0.0 0.00 0.00 0.00 78 1012.1
20260904013603 22 0 0.0 0.0 0.00 0.00 0.00 79 1012.4
20260904013203 21 0 0.0 0.0 0.00 0.00 0.00 80 1012.0
20260904012803 21 0 0.0 0.0 0.00 0.00 0.00 82 1012.2
20260904012403 21 0 0.0 0.0 0.00 0.00 0.00 84 1012.3
20260904012003 21 0 0.0 0.0 0.00 0.00 0.00 84 1012.0
20260904011603 21 0 0.0 0.0 0.00 0.00 0.00 84 1012.3
20260904011203 21 0 0.0 0.0 0.00 0.00 0.00 84 1012.4
20260904010803 21 0 0.0 0.0 0.00 0.00 0.00 83 1012.4
20260904010617 21 0 0.0 0.0 0.00 0.00 0.00 83 1012.3
20260904010216 21 0 0.0 0.0 0.00 0.00 0.00 83 1012.5
20260904005603 21 0 0.0 0.0 0.00 0.00 0.00 84 1012.5
20260904005415 21 0 0.0 0.0 0.00 0.00 0.00 84 1012.5
20260904004803 21 0 0.0 0.0 0.00 0.00 0.00 84 1012.4
20260904004403 21 0 0.0 0.0 0.00 0.00 0.00 85 1012.6
20260904004004 21 0 0.0 0.0 0.00 0.00 0.00 85 1012.3
20260904003813 21 0 0.0 0.0 0.00 0.00 0.00 85 1012.1
20260904003417 21 0 0.0 0.0 0.00 0.00 0.00 86 1012.5
20260904002803 21 0 0.0 0.0 0.00 0.00 0.00 87 1012.4
20260904002616 21 0 0.0 0.0 0.00 0.00 0.00 87 1012.3
20260904002003 21 0 0.0 0.0 0.00 0.00 0.00 86 1012.6
20260904001603 21 0 0.0 0.0 0.00 0.00 0.00 85 1012.5
20260904001414 21 0 0.0 0.0 0.00 0.00 0.00 85 1012.7
20260904000803 21 0 0.0 0.0 0.00 0.00 0.00 85 1012.5
20260904000403 21 0 0.0 0.0 0.00 0.00 0.00 85 1012.5
20260904000004 21 0 0.0 0.0 0.00 0.00 0.00 85 1012.6
20260903235816 21 0 0.0 0.0 0.00 0.00 0.00 85 1012.4
20260903235203 21 0 0.0 0.0 0.00 0.00 0.00 85 1012.3
20260903234803 21 0 0.0 0.0 0.00 0.00 0.00 85 1012.6
20260903234614 21 0 0.0 0.0 0.00 0.00 0.00 85 1012.6
20260903234003 21 0 0.0 0.0 0.00 0.00 0.00 85 1012.5
20260903233603 21 0 0.0 0.0 0.00 0.00 0.00 84 1012.5
20260903233203 21 0 0.0 0.0 0.00 0.00 0.00 83 1012.7
20260903232803 21 0 0.0 0.0 0.00 0.00 0.00 83 1012.7
20260903232403 21 0 0.0 0.0 0.00 0.00 0.00 83 1012.8
20260903232003 21 0 0.0 0.0 0.00 0.00 0.00 82 1012.6
20260903231604 21 0 0.0 0.0 0.00 0.00 0.00 82 1012.6
20260903231203 22 0 0.0 0.0 0.00 0.00 0.00 81 1012.7
20260903230803 22 0 0.0 0.0 0.00 0.00 0.00 80 1012.5
20260903230403 22 0 0.0 0.0 0.00 0.00 0.00 80 1012.7
20260903230004 22 0 0.0 0.0 0.00 0.00 0.00 78 1012.8
20260903225603 22 0 0.0 0.0 0.00 0.00 0.00 77 1012.8
20260903225416 22 0 0.0 0.0 0.00 0.00 0.00 77 1012.9
20260903224803 23 0 0.0 0.0 0.00 0.00 0.00 76 1012.8
20260903224403 23 0 0.0 0.0 0.00 0.00 0.00 75 1012.7
20260903224003 23 0 0.0 0.0 0.00 0.00 0.00 75 1012.5
20260903223603 23 0 0.0 0.0 0.00 0.00 0.00 74 1012.6
20260903223203 23 0 0.0 0.0 0.00 0.00 0.00 73 1012.6
20260903222804 23 0 0.0 0.0 0.00 0.00 0.00 73 1012.4
20260903222403 23 0 0.0 0.0 0.00 0.00 0.00 72 1012.5
20260903222216 23 0 0.0 0.0 0.00 0.00 0.00 73 1012.7
20260903221816 23 0 0.0 0.0 0.00 0.00 0.00 74 1012.5
20260903221203 23 0 0.0 0.0 0.00 0.00 0.00 74 1012.6
20260903221015 23 0 0.0 0.0 0.00 0.00 0.00 74 1012.5
20260903220403 23 90 0.0 3.2 0.00 0.00 0.00 74 1012.4
20260903220007 23 90 0.0 3.2 0.00 0.00 0.00 73 1012.3
20260903215603 22 0 0.0 0.0 0.00 0.00 0.00 74 1012.3
20260903215203 22 0 0.0 0.0 0.00 0.00 0.00 76 1012.0
20260903214803 22 0 0.0 0.0 0.00 0.00 0.00 77 1012.3
20260903214403 22 0 0.0 0.0 0.00 0.00 0.00 76 1012.2
20260903214003 22 0 0.0 0.0 0.00 0.00 0.00 75 1011.9
20260903213603 22 0 0.0 0.0 0.00 0.00 0.00 76 1012.3
20260903213203 22 0 0.0 0.0 0.00 0.00 0.00 76 1012.1
20260903212803 22 0 0.0 0.0 0.00 0.00 0.00 75 1012.1
20260903212403 22 0 0.0 0.0 0.00 0.00 0.00 75 1011.9
20260903212003 22 0 0.0 0.0 0.00 0.00 0.00 73 1011.9
20260903211603 22 0 0.0 0.0 0.00 0.00 0.00 73 1011.9
20260903211203 22 0 0.0 0.0 0.00 0.00 0.00 73 1012.0
20260903210803 22 0 0.0 0.0 0.00 0.00 0.00 73 1011.7
20260903210403 22 0 0.0 0.0 0.00 0.00 0.00 73 1012.1
20260903210214 22 0 0.0 0.0 0.00 0.00 0.00 74 1012.1
20260903205603 22 0 0.0 0.0 0.00 0.00 0.00 75 1012.0
20260903205413 22 0 0.0 0.0 0.00 0.00 0.00 75 1011.7
20260903204803 23 0 0.0 0.0 0.00 0.00 0.00 74 1012.2
20260903204403 23 0 0.0 0.0 0.00 0.00 0.00 73 1012.0
20260903204003 23 0 0.0 0.0 0.00 0.00 0.00 71 1012.1
20260903203603 23 0 0.0 0.0 0.00 0.00 0.00 71 1012.3
20260903203414 23 0 0.0 0.0 0.00 0.00 0.00 70 1012.2
20260903203014 23 0 0.0 0.0 0.00 0.00 0.00 70 1012.0
20260903202403 23 0 0.0 0.0 0.00 0.00 0.00 69 1012.0
20260903202003 23 0 0.0 0.0 0.00 0.00 0.00 68 1012.1
20260903201603 23 0 0.0 0.0 0.00 0.00 0.00 68 1011.9
20260903201416 23 0 0.0 0.0 0.00 0.00 0.00 68 1011.8
20260903201016 23 0 0.0 0.0 0.00 0.00 0.00 68 1011.9
20260903200403 24 0 0.0 0.0 0.00 0.00 0.00 67 1011.8
20260903200003 24 0 0.0 0.0 0.00 0.00 0.00 67 1011.9
20260903195814 24 0 0.0 0.0 0.00 0.00 0.00 66 1012.1
20260903195203 25 0 0.0 0.0 0.00 0.00 0.00 64 1011.9
20260903194803 25 0 0.0 0.0 0.00 0.00 0.00 62 1011.9
20260903194403 25 0 0.0 0.0 0.00 0.00 0.00 60 1011.7
20260903194003 25 0 0.0 0.0 0.00 0.00 0.00 60 1011.7
20260903193603 25 0 0.0 0.0 0.00 0.00 0.00 60 1011.8
20260903193203 25 0 0.0 0.0 0.00 0.00 0.00 61 1011.6
20260903193014 25 0 0.0 0.0 0.00 0.00 0.00 62 1011.6
20260903192403 25 0 0.0 0.0 0.00 0.00 0.00 60 1011.8
20260903192003 25 0 0.0 0.0 0.00 0.00 0.00 61 1011.5
20260903191603 25 0 0.0 0.0 0.00 0.00 0.00 59 1011.8
20260903191203 26 0 0.0 0.0 0.00 0.00 0.00 58 1011.5
20260903191016 26 0 0.0 0.0 0.00 0.00 0.00 59 1011.6
20260903190616 26 0 0.0 0.0 0.00 0.00 0.00 57 1011.5
20260903190004 26 90 0.0 3.2 0.00 0.00 0.00 56 1011.6
20260903185604 26 90 0.0 3.2 0.00 0.00 0.00 56 1011.6
20260903185203 26 90 0.0 3.2 0.00 0.00 0.00 56 1011.4
20260903184803 26 90 0.0 3.2 0.00 0.00 0.00 55 1011.5
20260903184403 26 92 0.0 6.4 0.00 0.00 0.00 56 1011.3
20260903184003 26 89 3.2 6.4 0.00 0.00 0.00 56 1011.5
20260903183816 27 87 0.0 6.4 0.00 0.00 0.00 56 1011.4
20260903183203 27 77 1.6 6.4 0.00 0.00 0.00 55 1011.3
20260903182803 27 74 3.2 6.4 0.00 0.00 0.00 54 1011.5
20260903182403 26 79 0.0 3.2 0.00 0.00 0.00 57 1011.3
20260903182003 26 86 1.6 6.4 0.00 0.00 0.00 57 1011.0
20260903181603 27 86 1.6 6.4 0.00 0.00 0.00 57 1011.3
20260903181203 27 87 1.6 6.4 0.00 0.00 0.00 56 1011.3
20260903180803 27 92 3.2 6.4 0.00 0.00 0.00 56 1011.2
20260903180403 27 88 3.2 6.4 0.00 0.00 0.00 57 1011.1
20260903180216 27 84 1.6 6.4 0.00 0.00 0.00 56 1011.1
20260903175815 27 86 1.6 6.4 0.00 0.00 0.00 57 1011.2
20260903175203 27 93 3.2 6.4 0.00 0.00 0.00 56 1011.1
20260903174803 27 87 3.2 6.4 0.00 0.00 0.00 57 1010.9
20260903174403 27 85 1.6 3.2 0.00 0.00 0.00 56 1011.2
20260903174003 27 80 1.6 6.4 0.00 0.00 0.00 56 1011.1
20260903173603 27 86 0.0 6.4 0.00 0.00 0.00 57 1011.1
20260903173203 27 93 1.6 3.2 0.00 0.00 0.00 56 1011.1
20260903172803 28 94 3.2 6.4 0.00 0.00 0.00 56 1011.1
20260903172403 28 98 1.6 6.4 0.00 0.00 0.00 56 1011.0
20260903172003 28 94 3.2 6.4 0.00 0.00 0.00 55 1011.1
20260903171603 28 89 3.2 6.4 0.00 0.00 0.00 55 1011.1
20260903171203 28 85 3.2 6.4 0.00 0.00 0.00 54 1011.1
20260903170803 28 84 1.6 6.4 0.00 0.00 0.00 54 1011.3
20260903170403 28 85 3.2 6.4 0.00 0.00 0.00 52 1011.3
20260903170003 28 90 3.2 6.4 0.00 0.00 0.00 52 1011.2
20260903165603 28 97 1.6 6.4 0.00 0.00 0.00 52 1011.2
20260903165203 29 90 1.6 3.2 0.00 0.00 0.00 52 1010.9
20260903165015 29 86 0.0 6.4 0.00 0.00 0.00 53 1011.2
20260903164404 30 88 0.0 6.4 0.00 0.00 0.00 50 1011.3
20260903164213 30 90 1.6 6.4 0.00 0.00 0.00 49 1011.1
20260903163603 30 85 1.6 6.4 0.00 0.00 0.00 49 1011.3
20260903163203 30 86 6.4 6.4 0.00 0.00 0.00 47 1011.2
20260903162804 30 93 1.6 6.4 0.00 0.00 0.00 49 1011.2
20260903162403 30 102 1.6 6.4 0.00 0.00 0.00 50 1011.3
20260903162003 30 97 4.8 6.4 0.00 0.00 0.00 47 1011.2
20260903161603 30 93 3.2 11.3 0.00 0.00 0.00 47 1011.2
20260903161203 30 88 3.2 11.3 0.00 0.00 0.00 47 1010.9
20260903161013 30 90 3.2 11.3 0.00 0.00 0.00 48 1011.1
20260903160403 31 89 6.4 11.3 0.00 0.00 0.00 46 1011.2
20260903160003 31 98 3.2 9.7 0.00 0.00 0.00 47 1010.9
20260903155603 31 90 1.6 9.7 0.00 0.00 0.00 46 1011.0
20260903155203 31 89 3.2 9.7 0.00 0.00 0.00 47 1011.0
20260903154803 31 76 1.6 9.7 0.00 0.00 0.00 46 1011.0
20260903154403 31 77 1.6 12.9 0.00 0.00 0.00 46 1010.8
20260903154214 31 75 1.6 12.9 0.00 0.00 0.00 46 1011.1
20260903153603 31 75 6.4 11.3 0.00 0.00 0.00 44 1010.8
20260903153203 31 91 3.2 17.7 0.00 0.00 0.00 49 1010.9
20260903152803 31 94 3.2 17.7 0.00 0.00 0.00 44 1010.8
20260903152403 31 85 3.2 17.7 0.00 0.00 0.00 46 1010.9
20260903152003 32 92 4.8 6.4 0.00 0.00 0.00 46 1011.0
20260903151603 31 78 3.2 12.9 0.00 0.00 0.00 47 1010.8
20260903151203 31 76 1.6 12.9 0.00 0.00 0.00 48 1010.6
20260903151014 31 76 3.2 12.9 0.00 0.00 0.00 47 1010.6
20260903150403 31 87 4.8 11.3 0.00 0.00 0.00 46 1010.7
20260903150004 31 91 3.2 9.7 0.00 0.00 0.00 49 1010.9
20260903145603 32 99 3.2 9.7 0.00 0.00 0.00 46 1011.0
20260903145203 31 90 3.2 11.3 0.00 0.00 0.00 47 1011.1
20260903144803 31 78 3.2 11.3 0.00 0.00 0.00 47 1011.2
20260903144403 31 85 6.4 11.3 0.00 0.00 0.00 47 1011.2
20260903144214 32 93 6.4 11.3 0.00 0.00 0.00 45 1011.4
20260903143604 32 93 4.8 11.3 0.00 0.00 0.00 49 1011.6
20260903143204 32 91 3.2 6.4 0.00 0.00 0.00 45 1011.5
20260903142804 32 106 1.6 6.4 0.00 0.00 0.00 47 1011.5
20260903142403 31 103 3.2 9.7 0.00 0.00 0.00 48 1011.3
20260903142003 31 105 3.2 9.7 0.00 0.00 0.00 46 1011.3